Retour au catalogue

COSMOS 1275 DEB

ActifPO
NORAD 12696·DEBRIS·🇷🇺 Russia

Lancé Jun 4, 1981 depuis Plesetsk Cosmodrome

Loading…

Prochains Passages (prochaines 24 heures)

TLE

FraisSource: Space-Track

Époque: Sep 14, 2026, 15:28 UTC

1 12696U 81053AQ  26257.64489148  .00000308  00000-0  41025-3 0  9993
2 12696  83.0735 204.6590 0148092 337.0110 201.8544 13.53393081219762

Suivez COSMOS 1275 DEB en temps réel avec AllMySat

Download on the App Store